sat.trackr.live / text

‹ back to catalog

COSMOS 2573

NORAD 58614 · 2023-201A

PAYLOAD ACTIVE UNKNOWN

§ Identity

Operator
Country
CIS
Launch date
2023-12-21
Launch site
PLMSC
Launch vehicle
Mass (kg)
RCS (m²)

External: N2YO · Heavens-Above · Gunter

§ Orbital elements

Epoch: 2026-09-21T22:56:07.371168Z

Period
94.40 min
Inclination
97.6366°
Eccentricity
0.0002840
Mean motion
15.25430313 rev/d
Perigee alt
487.5 km
Apogee alt
491.4 km
Semi-major
6,867.6 km
B*
9.3995e-5
RAAN
216.2837°
Arg perigee
72.7723°
Mean anomaly
287.3825°
Rev number
15,323

§ Raw data

COSMOS 25731 58614U 23201A   26264.95564087  .00002300  00000+0  93995-4 0  99992 58614  97.6366 216.2837 0002840  72.7723 287.3825 15.25430313153230

JSON: /api/v1/satellites/58614 · /tle

For live sub-satellite position, see the globe view (requires WebGL).

§ Visibility from observer

Set your observer location to see the next 7 days of passes ≥ 10°. The values pass through the URL so the page stays shareable.

No JS? Fill the form by hand. The geolocation button needs JavaScript.